[Date Prev][Date Next][Thread Prev][Thread Next] - [Date Index][Thread Index][Author Index]

2 Line ISS Keps 11-19



ISS
1 25544U 98067A   06322.98842593  .00018062  00000-0  10640-3 0   937
2 25544 051.6324 109.5666 0011248 231.8242 258.7157 15.78208629457586
----
Sent via sarex@amsat.org. Opinions expressed are those of the author.
Not an AMSAT member? Join now to support the amateur satellite program!
Subscription settings: http://amsat.org/mailman/listinfo/sarex



AMSAT Top AMSAT Home